DW3263 Weather Reports


time (UTC)temp
C
wind
direction
speed
KPH
gust
KPH
rain 1hr
cm
rain 24hr
cm
rain mn
cm
humidity
%
barometer
mb
20260831134520 21 0.0 0.0 0.03 0.03 0.03 100 1019.5
20260831133532 21 0.0 0.0 0.00 0.00 0.00 100 1019.3
20260831132730 21 0.0 3.2 0.00 0.00 0.00 100 1019.3
20260831131520 21 0.0 3.2 0.00 0.00 0.00 100 1019.4
20260831130520 20 293 1.6 4.8 0.00 0.00 0.00 100 1019.3
20260831125520 20 0.0 0.0 0.00 0.00 0.00 100 1019.2
20260831124520 20 0.0 0.0 0.00 0.00 0.00 100 1019.2
20260831123730 20 0.0 0.0 0.00 0.00 0.00 100 1019.1
20260831122731 19 0.0 0.0 0.00 0.00 0.00 100 1019.0
20260831121520 19 0.0 0.0 0.00 0.00 0.00 100 1018.9
20260831120733 19 0.0 0.0 0.00 0.00 0.00 100 1019.0
20260831115942 18 0.0 0.0 0.00 0.00 0.00 100 1018.9
20260831114729 18 0.0 0.0 0.00 0.00 0.00 100 1018.8
20260831113519 18 0.0 0.0 0.00 0.00 0.00 100 1018.9
20260831112732 18 0.0 0.0 0.00 0.00 0.00 100 1018.8
20260831111520 18 0.0 0.0 0.00 0.00 0.00 100 1018.9
20260831110520 18 0.0 0.0 0.00 0.00 0.00 100 1018.8
20260831105520 18 0.0 0.0 0.00 0.00 0.00 100 1018.6
20260831104520 18 0.0 0.0 0.00 0.00 0.00 100 1018.3
20260831103519 18 0.0 0.0 0.00 0.00 0.00 100 1018.2
20260831102520 18 0.0 0.0 0.00 0.00 0.00 100 1018.3
20260831101946 18 0.0 0.0 0.00 0.00 0.00 100 1018.1
20260831100947 18 0.0 0.0 0.00 0.00 0.00 100 1018.1
20260831095520 18 0.0 0.0 0.00 0.00 0.00 100 1018.3
20260831094520 18 0.0 0.0 0.00 0.00 0.00 100 1018.3
20260831093520 18 0.0 0.0 0.00 0.00 0.00 100 1018.3
20260831092520 18 0.0 0.0 0.00 0.00 0.00 100 1018.2
20260831091520 18 0.0 0.0 0.00 0.00 0.00 100 1018.1
20260831090520 18 0.0 0.0 0.00 0.00 0.00 100 1018.0
20260831085944 18 0.0 0.0 0.00 0.00 0.00 100 1018.0
20260831084520 18 0.0 0.0 0.00 0.00 0.00 100 1018.0
20260831083520 18 0.0 0.0 0.00 0.00 0.00 100 1017.8
20260831082520 18 0.0 0.0 0.00 0.00 0.00 100 1017.8
20260831081520 18 0.0 0.0 0.00 0.00 0.00 100 1017.8
20260831080520 18 0.0 0.0 0.00 0.00 0.00 100 1017.7
20260831075520 18 0.0 0.0 0.00 0.00 0.00 100 1017.7
20260831074520 18 0.0 0.0 0.00 0.00 0.00 100 1017.7
20260831073733 18 0.0 0.0 0.00 0.00 0.00 100 1017.8
20260831072520 18 0.0 0.0 0.00 0.00 0.00 100 1017.8
20260831071520 18 0.0 0.0 0.00 0.00 0.00 100 1017.9
20260831070731 19 0.0 0.0 0.00 0.00 0.00 100 1017.9
20260831065520 19 0.0 0.0 0.00 0.00 0.00 100 1018.1
20260831064520 19 0.0 0.0 0.00 0.00 0.00 100 1018.0
20260831063520 19 0.0 0.0 0.00 0.00 0.00 100 1018.0
20260831062520 20 0.0 0.0 0.00 0.00 0.00 100 1018.0
20260831061520 20 0.0 0.0 0.00 0.00 0.00 100 1018.1
20260831060520 20 0.0 1.6 0.00 0.00 0.00 100 1018.3
20260831055520 20 0.0 0.0 0.00 0.00 0.00 100 1018.3
20260831054734 20 0.0 1.6 0.00 0.00 0.00 100 1018.5
20260831053520 20 0.0 0.0 0.00 0.00 0.00 100 1018.4
20260831052520 20 0.0 0.0 0.00 0.00 0.00 100 1018.5
20260831051519 20 0.0 0.0 0.00 0.00 0.00 100 1018.4
20260831050520 20 293 1.6 4.8 0.00 0.00 0.00 100 1018.7
20260831045733 20 0.0 6.4 0.00 0.00 0.00 100 1018.6
20260831044520 20 0.0 3.2 0.00 0.00 0.00 100 1018.7
20260831043520 20 293 3.2 4.8 0.00 0.00 0.00 100 1018.5
20260831042520 20 0.0 1.6 0.00 0.00 0.00 100 1018.3
20260831041520 20 0.0 0.0 0.00 0.00 0.00 100 1018.5
20260831040520 20 0.0 0.0 0.00 0.00 0.00 100 1018.4
20260831035519 20 0.0 0.0 0.00 0.00 0.00 100 1018.5
20260831034730 20 0.0 0.0 0.00 0.00 0.00 100 1018.5
20260831033519 20 0.0 0.0 0.00 0.00 0.00 100 1018.7
20260831032519 20 0.0 3.2 0.00 0.00 0.00 100 1018.8
20260831031519 20 0.0 0.0 0.00 0.00 0.00 100 1018.8
20260831030519 20 0.0 0.0 0.00 0.00 0.00 100 1018.8
20260831025520 20 0.0 0.0 0.00 0.00 0.00 100 1018.9
20260831024730 20 0.0 0.0 0.00 0.00 0.00 100 1018.8
20260831023519 20 0.0 0.0 0.00 0.00 0.00 100 1018.8
20260831022519 20 0.0 0.0 0.00 0.00 0.00 100 1018.9
20260831021520 20 0.0 0.0 0.00 0.00 0.00 100 1018.8
20260831020729 20 0.0 0.0 0.00 0.00 0.00 100 1018.9
20260831015730 21 0.0 0.0 0.00 0.00 0.00 100 1018.8
20260831014520 21 0.0 0.0 0.00 0.00 0.00 100 1018.7
20260831013520 21 0.0 0.0 0.00 0.00 0.00 100 1018.7
20260831012733 22 0.0 0.0 0.00 0.00 0.00 100 1018.5
20260831011520 22 0.0 0.0 0.00 0.00 0.00 100 1018.3
20260831010520 22 0.0 0.0 0.00 0.00 0.00 100 1018.3
20260831005520 22 0.0 0.0 0.00 0.00 0.00 100 1018.1
20260831004519 22 0.0 0.0 0.00 0.00 0.00 100 1017.9
20260831003520 23 0.0 0.0 0.00 0.00 0.00 100 1017.6
20260831002520 23 0.0 0.0 0.00 0.00 0.00 100 1017.3
20260831001519 23 0.0 0.0 0.00 0.00 0.00 100 1017.0
20260831000520 23 0.0 0.0 0.00 0.00 0.00 100 1016.9
20260830235519 23 0.0 0.0 0.00 0.00 0.00 100 1016.8
20260830234520 24 0.0 0.0 0.00 0.00 0.00 100 1016.9
20260830233733 24 0.0 0.0 0.00 0.00 0.00 100 1017.0
20260830232520 25 0.0 0.0 0.00 0.00 0.00 1 1017.0
20260830231520 25 0.0 0.0 0.00 0.00 0.00 1 1017.1
20260830230520 25 0.0 0.0 0.00 0.00 0.00 11 1017.0
20260830225519 25 0.0 0.0 0.00 0.00 0.00 26 1017.0
20260830224946 25 0.0 0.0 0.00 0.00 0.00 33 1017.0
20260830223520 25 0.0 0.0 0.00 0.00 0.00 34 1017.1
20260830222519 25 0.0 0.0 0.00 0.00 0.00 36 1017.1
20260830221731 26 0.0 0.0 0.00 0.00 0.00 41 1017.1
20260830220945 26 0.0 0.0 0.00 0.00 0.00 46 1017.1
20260830215520 27 0.0 0.0 0.00 0.00 0.00 49 1017.0
20260830214734 27 0.0 0.0 0.00 0.00 0.00 53 1016.9
20260830213942 27 0.0 1.6 0.00 0.00 0.00 58 1016.9
20260830212520 27 293 1.6 4.8 0.00 0.00 0.00 61 1016.9
20260830211520 27 293 1.6 6.4 0.00 0.00 0.00 61 1016.8
20260830210520 27 0.0 1.6 0.00 0.00 0.00 60 1017.0
20260830205520 28 0.0 1.6 0.00 0.00 0.00 60 1016.9
20260830204942 28 0.0 0.0 0.00 0.00 0.00 60 1016.8
20260830203520 28 293 3.2 4.8 0.00 0.00 0.00 56 1016.9
20260830202520 29 293 3.2 8.0 0.00 0.00 0.00 55 1016.9
20260830201732 30 270 3.2 8.0 0.00 0.00 0.00 54 1016.9
20260830200946 30 270 4.8 12.9 0.00 0.00 0.00 53 1016.8
20260830195520 30 270 3.2 9.7 0.00 0.00 0.00 57 1017.0
20260830194520 29 293 3.2 8.0 0.00 0.00 0.00 56 1017.1
20260830193520 30 293 8.0 16.1 0.00 0.00 0.00 55 1017.4
20260830192732 29 248 6.4 16.1 0.00 0.00 0.00 59 1017.6
20260830191733 28 248 4.8 9.7 0.00 0.00 0.00 60 1017.6
20260830190947 28 248 3.2 9.7 0.00 0.00 0.00 59 1017.9
20260830185520 28 270 4.8 8.0 0.00 0.00 0.00 59 1018.0
20260830184943 28 248 4.8 11.3 0.00 0.00 0.00 59 1018.1
20260830183520 28 225 3.2 9.7 0.00 0.00 0.00 59 1018.1
20260830182521 28 225 4.8 12.9 0.00 0.00 0.00 59 1018.3
20260830181520 28 270 3.2 9.7 0.00 0.00 0.00 57 1018.4
20260830180520 28 270 4.8 11.3 0.00 0.00 0.00 56 1018.4
20260830175730 28 180 3.2 11.3 0.00 0.00 0.00 50 1018.4
20260830174731 27 158 3.2 8.0 0.00 0.00 0.00 52 1018.7
20260830173520 27 180 6.4 11.3 0.00 0.00 0.00 47 1018.9
20260830172519 27 180 4.8 11.3 0.00 0.00 0.00 48 1019.0
20260830171520 27 180 4.8 9.7 0.00 0.00 0.00 40 1019.1
20260830170520 26 180 4.8 11.3 0.00 0.00 0.00 44 1019.1
20260830165518 26 180 1.6 4.8 0.00 0.00 0.00 44 1019.2
20260830164520 26 203 6.4 14.5 0.00 0.00 0.00 44 1019.2
20260830163732 26 203 6.4 11.3 0.00 0.00 0.00 39 1019.3
20260830162520 26 225 6.4 11.3 0.00 0.00 0.00 35 1019.4
20260830161520 26 248 6.4 12.9 0.00 0.00 0.00 33 1019.5
20260830160520 25 180 8.0 14.5 0.00 0.00 0.00 33 1019.4
20260830155520 25 248 6.4 16.1 0.00 0.00 0.00 28 1019.5
20260830154945 25 225 8.0 16.1 0.00 0.00 0.00 26 1019.6
20260830153520 25 225 6.4 12.9 0.00 0.00 0.00 9 1019.7
20260830152521 25 203 3.2 9.7 0.00 0.00 0.00 11 1020.0
20260830151520 24 203 3.2 9.7 0.00 0.00 0.00 6 1019.9
20260830150520 24 203 4.8 9.7 0.00 0.00 0.00 11 1020.0
20260830145520 24 203 4.8 11.3 0.00 0.00 0.00 5 1020.1
20260830144520 24 203 3.2 8.0 0.00 0.00 0.00 14 1020.0
20260830143520 23 203 3.2 11.3 0.00 0.00 0.00 17 1020.0
20260830142520 23 180 3.2 8.0 0.00 0.00 0.00 10 1020.1
20260830141518 23 180 3.2 8.0 0.00 0.00 0.00 100 1020.1
20260830140520 22 180 4.8 9.7 0.00 0.00 0.00 11 1020.2
20260830135520 22 180 3.2 8.0 0.00 0.00 0.00 100 1020.2